Location: Ahausen
(50.4985°N, 8.2722°E)
Time: 01:10:36
(UTC+00:00)

Lacrosse 4 Rocket - Pass Details

Date: 18 September 2020
Orbit: 543 x 615 km, 68.0° (Epoch: 23 October)

Event Time Altitude Azimuth Distance (km) Brightness Sun altitude
Rises 19:19:21 0° 331° (NNW) 2,717 5.8 -17.2°
Reaches altitude 10° 19:22:39 10° 360° (N) 1,822 4.3 -17.6°
Maximum altitude 19:24:37 13° 29° (NNE) 1,630 3.7 -17.9°
Enters shadow 19:25:50 12° 48° (NE) 1,708 3.6 -18.1°
